Regional Weather Roundup
Issued by NWS

Home | Current Version | Previous Version | Graphics & Text | Print | Product List | Glossary On
Versions: 1 2 3 4 5 6 7 8 9 10 11 12 13 14 15 16 17 18 19 20 21 22 23 24 25 26 27 28 29 30 31 32 33 34 35 36 37 38 39 40 41 42 43 44 45 46 47 48 49 50
000
ASUS43 KDMX 051607
RWRIA

WEATHER ROUNDUP FOR IOWA
NATIONAL WEATHER SERVICE DES MOINES IA
1000 AM CST THU MAR 05 2015

NOTE: "FAIR" INDICATES FEW OR NO CLOUDS BELOW 12,000 FEET WITH NO
SIGNIFICANT WEATHER AND/OR OBSTRUCTIONS TO VISIBILITY.

* - THESE STATIONS ARE NOT NWS STATIONS...THUS NOT UNDER NWS
QUALITY CONTROL.  THEY ALSO DO NOT REPORT WEATHER SUCH
AS PRECIPITATION OR FOG.

IAZ001>003-012>014-020>022-031>034-043>046-051700-
   NORTHWEST IOWA

CITY           SKY/WX    TMP DP  RH WIND       PRES   REMARKS
CARROLL *      SUNNY      7  -8  51 NW3       30.55F
CHEROKEE *     SUNNY      5  -6  61 SW5       30.53S WCI  -4
DENISON *      SUNNY      9  -4  56 W5        30.53S WCI   0
LE MARS *      SUNNY      9   0  66 S8        30.52F WCI  -4
ORANGE CITY *  SUNNY      9  -2  61 S6        30.48S WCI  -1
SHELDON *      SUNNY      5  -6  61 S6        30.48S WCI  -6
SIOUX CITY     SUNNY     11   1  64 VRB6      30.54S WCI   1
SPENCER        SUNNY      5  -7  57 SW6       30.51R WCI  -6
STORM LAKE *   SUNNY      5  -8  56 S3        30.51S
$$

IAZ055>058-069>071-079>083-090>094-051700-
   SOUTHWEST IOWA

CITY           SKY/WX    TMP DP  RH WIND       PRES   REMARKS
ATLANTIC *     SUNNY     10  -4  52 CALM      30.56F
AUDUBON *      SUNNY      9  -4  56 CALM      30.54F
CLARINDA *     SUNNY     12  -2  52 NE3       30.61S
COUNCIL BLFS * SUNNY     12  -2  52 CALM      30.54F
CRESTON *      SUNNY      9  -6  52 NW7       30.56S WCI  -3
HARLAN  *      SUNNY      9  -2  61 CALM      30.59F
LAMONI         SUNNY     10  -3  55 NW7       30.56R WCI  -1
RED OAK *      SUNNY     12  -2  52 CALM      30.59S
SHENANDOAH *   SUNNY     12  -2  52 SW3       30.60F
$$

IAZ047>049-059>061-072>074-084-051700-
   CENTRAL IOWA

CITY           SKY/WX    TMP DP  RH WIND       PRES   REMARKS
AMES           SUNNY      6  -7  54 NW6       30.58S WCI  -4
ANKENY *       SUNNY      7  -6  56 VRB5      30.59S WCI  -2
CHARITON *     SUNNY      9  -4  56 W8        30.57R WCI  -4
DES MOINES     MOSUNNY    8  -7  50 VRB3      30.58S
GRINNELL*      SUNNY      3  -6  66 NW9       30.57R WCI -11
KNOXVILLE *    SUNNY      7  -6  56 NW5G13    30.57R WCI  -2
MARSHALLTOWN   SUNNY      0  -7  72 NW8       30.56S WCI -14
PELLA *        SUNNY      9  -2  61 NW10      30.60R WCI  -6
PERRY *          N/A      7  -4  61 W6        30.58S WCI  -3
$$

IAZ004>006-015-016-023>025-035-036-051700-
   NORTH CENTRAL IOWA

CITY           SKY/WX    TMP DP  RH WIND       PRES   REMARKS
ALGONA *       SUNNY      5 N/A N/A SW6       30.53S WCI  -6
CLARION *      SUNNY      3  -4  72 NW6       30.54S WCI  -8
ESTHERVILLE    SUNNY      3  -7  63 SW9       30.49F WCI -12
FORT DODGE *   SUNNY      5  -8  56 SW3       30.56R
MASON CITY     SUNNY      0  -7  72 W5        30.54R WCI -10
FOREST CITY *  SUNNY      3  -8  60 SW3       30.52S
IOWA FALLS *     N/A      3  -6  66 W5        30.55S WCI  -6
$$

IAZ007>011-017>019-026>030-037>042-050>054-066-051700-
   NORTHEAST IOWA

CITY           SKY/WX    TMP DP  RH WIND       PRES   REMARKS
CEDAR RAPIDS   SUNNY      1  -6  72 NW7       30.55R WCI -12
CHARLES CITY * SUNNY      0  -8  71 W6        30.54R WCI -12
CLINTON *      SUNNY      1  -6  71 NW5       30.57R WCI  -8
DECORAH *      SUNNY      1 -11  55 N3        30.50F
DUBUQUE        SUNNY      4  -7  60 NW6       30.49S WCI  -7
MONTICELLO *   SUNNY      1  -9  60 CALM      30.55S
OELWEIN *      SUNNY      0  -8  71 NW7       30.53F WCI -13
WATERLOO       SUNNY      2  -7  66 NW6       30.56S WCI  -9
$$

IAZ064-065-067-068-078-051700-
   EAST CENTRAL IOWA

CITY           SKY/WX    TMP DP  RH WIND       PRES   REMARKS
DAVENPORT      SUNNY      2  -6  69 NW8       30.55R WCI -12
IOWA CITY      SUNNY      4  -6  63 NW8       30.59S WCI  -9
MT. PLEASANT * SUNNY      9  -6  52 NW9       30.58S WCI  -5
MUSCATINE *    SUNNY      7  -4  61 NW8       30.60R WCI  -6
QUAD CITIES    SUNNY      6  -4  63 NW9       30.56R WCI  -8
$$

IAZ062-063-075>077-085>089-095>099-051700-
   SOUTHEAST IOWA

CITY           SKY/WX    TMP DP  RH WIND       PRES   REMARKS
BURLINGTON     SUNNY      8  -2  63 NW9       30.57R WCI  -5
FAIRFIELD *    SUNNY      7  -8  51 NW12      30.58R WCI  -9
FORT MADISON * SUNNY      9  -4  56 NW12      30.58R WCI  -6
KEOKUK *       SUNNY     10  -4  52 NW13      30.58R WCI  -5
OSKALOOSA *      N/A      7  -4  61 NW12      30.58S WCI  -9
CENTERVILLE *  SUNNY      9   0  66 NW8       30.58R WCI  -4
OTTUMWA        SUNNY      9  -5  53 NW9       30.58R WCI  -4
WASHINGTON *   SUNNY      7  -2  66 NW15      30.58R WCI -11
$$

ABBREVIATIONS USED IN REMARKS
   TC - TEMPERATURES IN CELSIUS
  WCI - WIND CHILL INDEX
   HX - HEAT INDEX
  VSB - VISIBILITY
$$




USA.gov is the U.S. government's official web portal to all federal, state and local government web resources and services.